Regional Weather Roundup
Issued by NWS Jackson, KY

Home | Current Version | Previous Version | Graphics & Text | Print | Product List | Glossary On
Versions: 1 2 3 4 5 6 7 8 9 10 11 12 13 14 15 16 17 18 19 20 21 22 23 24 25 26 27 28 29 30 31 32 33 34 35 36 37 38 39 40 41 42 43 44 45 46 47 48 49 50
611
ASUS43 KJKL 260610
RWRJKL

EAST KENTUCKY HOURLY WEATHER ROUNDUP
NATIONAL WEATHER SERVICE JACKSON KY
200 AM EDT THU APR 26 2018

NOTE: "FAIR" INDICATES FEW OR NO CLOUDS BELOW 12,000 FEET WITH
NO SIGNIFICANT WEATHER AND/OR OBSTRUCTIONS TO VISIBILITY.

* THESE REPORTS ARE NOT UNDER NWS QUALITY CONTROL AND MAY NOT
  REPORT WEATHER SUCH AS PRECIPITATION AND FOG.

KYZ079-080-083-085-087-088-110-112-115-119-120-260700
...EASTERN KENTUCKY...

CITY           SKY/WX    TMP DP  RH WIND       PRES   REMARKS
JACKSON        CLOUDY    51  50  96 S3        29.92S FOG
6HR MIN TEMP:  50; 6HR MAX TEMP:  54;

LONDON         FOG       47  47 100 CALM      29.92F VSB 1/4
6HR MIN TEMP:  47; 6HR MAX TEMP:  55;

SOMERSET*        N/A     48  48 100 CALM      29.93F
WILLIAMSBURG*    N/A     48  48 100 CALM      29.92F
MIDDLESBORO*   CLOUDY    48  48 100 CALM      29.95S
6HR MIN TEMP:  48; 6HR MAX TEMP:  56;

HARLAN APT*    CLOUDY    48  48 100 CALM      29.94S VSB 1/4
PIKE CO APT*     N/A     50  50 100 CALM      29.92S
BIG SANDY APT* FOG       48  48 100 CALM      29.92S VSB 1/2
6HR MIN TEMP:  48; 6HR MAX TEMP:  56;

MOREHEAD APT*  CLOUDY    50  48  93 SE3       29.92F
ASHLAND*       CLOUDY    47  46  97 CALM      29.92S
$$

KYZ035-036-041-042-044-050-067-078-099-260700
...CENTRAL KENTUCKY...

CITY           SKY/WX    TMP DP  RH WIND       PRES   REMARKS
MT STERLING*     N/A     46  46 100 SW3       29.92F
FLEMING/MASON* MOCLDY    50  49  97 E3        29.91F
DANVILLE*        N/A     50  46  87 CALM      29.92F
LEXINGTON        N/A     54  45  71 CALM      29.91F
6HR MIN TEMP:  53; 6HR MAX TEMP:  63;

FRANKFORT        N/A     52  45  77 CALM      29.90F
6HR MIN TEMP:  51; 6HR MAX TEMP:  62;

LOUISVILLE     CLOUDY    57  40  52 N10       29.91S
6HR MIN TEMP:  57; 6HR MAX TEMP:  66;

LEBANON*         N/A     55  46  71 CALM      29.91F
GLASGOW*         N/A     53  51  91 E3        29.90F
BOWLING GREEN    N/A     59  52  77 CALM      29.90F
6HR MIN TEMP:  57; 6HR MAX TEMP:  67;

$$

KYZ091>093-OHZ055-061-077-WVZ005-015-034-035-042-260700
...SOUTHERN OHIO/WEST VIRGINIA...

CITY           SKY/WX    TMP DP  RH WIND       PRES   REMARKS
COVINGTON      CLOUDY    49  35  58 N9        29.93S
COLUMBUS         N/A     47  43  86 E5        29.90S
DAYTON           N/A     43  35  73 NW8       29.92F
WILMINGTON       N/A     50  38  63 NW7       29.91F
HUNTINGTON     FOG       47  45  93 E3        29.90F VSB 3/4
CHARLESTON     FOG       47  47 100 CALM      29.92R VSB 1/2
PINEVILLE*       N/A     46  44  95 MISG      29.96R
BECKLEY          N/A     46  45  96 NW3       29.90R
BLUEFIELD      MOCLDY    46  42  86 NW5       29.91S
LOGAN CO APT*  FOG       48  48 100 CALM      29.91S VSB<1/4
$$

VAZ002-007-008-TNZ017-027-036-066-071-260700
...SOUTHWEST VIRGINIA/EAST TENNESSEE...

CITY           SKY/WX    TMP DP  RH WIND       PRES   REMARKS
WISE*          CLOUDY    48  48 100 CALM      29.94S
JONESVILLE*      N/A     48  48 100 CALM      29.96S
ABINGDON*      CLOUDY    54  48  78 CALM      29.92R
BRISTOL        CLOUDY    56  51  84 W3        29.92R
MORRISTOWN*    MOCLDY    52  52 100 CALM      29.93S
SEVIERVILLE*   PTCLDY    55  52  88 CALM      29.93F
KNOXVILLE      CLOUDY    54  52  93 NE3       29.91F
LAFOLLETTE*    PTCLDY    50  50 100 CALM      29.96S
OAK RIDGE        N/A     53  52  96 CALM      29.93F
CROSSVILLE     CLOUDY    51  48  89 CALM      29.93F
NASHVILLE      CLOUDY    61  51  70 W8        29.91F
$$

...KEY TO REMARKS...
VSB - VISIBILITY IN MILES
WCI - WIND CHILL INDEX
HX  - HEAT INDEX

$$




USA.gov is the U.S. government's official web portal to all federal, state and local government web resources and services.